GAOFEN-3

Last updated on Sun Aug 31 2025 00:02:31 GMT+0000 (Coordinated Universal Time)

1 41727U 16049A 25242.32153491 .00000117 00000+0 48607-4 0 9991 2 41727 98.4061 249.4653 0001003 60.9088 299.2202 14.42236192476725
UTC large
Height (km)
Speed (km/s)
/
Latitude / Longitude
Inclination (degrees)
Orbital Period (minutes)
Azimuth
Elevation
Range (km)
Doppler Factor

Next 0 passes for location: London (51.5072 / 0.1276)

Sorry there are no passes over London.